Cleveland Municipal Airport, MS

6:49 AM CDT on July 26, 2017 (GMT -0500)
Cleveland Municipal

Weather History for KRNV - May, 2014

Change the Weather History Date:

Monday, May 5, 2014

  Actual Average (KGLH) Record (KGLH)
Temperature  
Mean Temperature 74 °F -  
Max Temperature 86 °F 77 °F 93 °F (1943)
Min Temperature 61 °F 57 °F 43 °F (1921)
Cooling Degree Days 8    
Growing Degree Days 24 (Base 50)    
Moisture  
Dew Point 52 °F    
Average Humidity 47    
Maximum Humidity 70    
Minimum Humidity 28    
Precipitation  
Precipitation 0.00 in - - ()
Sea Level Pressure  
Sea Level Pressure 29.95 in    
Wind  
Wind Speed 9 mph (SSW)    
Max Wind Speed 18 mph    
Max Gust Speed 25 mph    
Visibility 10 miles    
Events      
Averages and records for this station are not official NWS values.
T = Trace of Precipitation, MM = Missing Value Source: NWS Daily Summary

Daily Weather History Graph

Daily Weather History Graph

Search for Another Location

Airport or City:

Trip Planner

Search our weather history database for the weather conditions in past years. The results will help you decide how hot, cold, wet, or windy it might be!

Date:

Astronomy

May. 05, 2014 Rise Set
Actual Time 6:10 AM CDT 7:49 PM CDT
Civil Twilight 5:43 AM CDT 8:16 PM CDT
Nautical Twilight 5:11 AM CDT 8:48 PM CDT
Astronomical Twilight 4:37 AM CDT 9:23 PM CDT
Moon 11:29 AM CDT (5/5) 12:34 AM CDT (5/5)
Length of Visible Light 14h 32m
Length of Day
13h 39m
Waxing Crescent, 37% of the Moon is Illuminated
May 5
Waxing Crescent
May 6
First Quarter
May 14
Full
May 21
Last Quarter
May 28
New

Hourly Weather History & Observations

Time (CDT) Temp. Dew Point Humidity Pressure Visibility Wind Dir Wind Speed Gust Speed Precip Events Conditions
12:15 AM 68.9 °F 54.1 °F 59% 29.99 in 10.0 mi South 6.9 mph - N/A   Clear
12:35 AM 68.0 °F 54.3 °F 62% 29.99 in 10.0 mi SSW 5.8 mph - N/A   Clear
12:55 AM 66.7 °F 54.5 °F 65% 29.99 in 10.0 mi South 4.6 mph - N/A   Clear
1:15 AM 66.4 °F 54.5 °F 66% 29.98 in 10.0 mi South 5.8 mph - N/A   Clear
1:35 AM 66.4 °F 54.5 °F 66% 29.98 in 10.0 mi SSW 8.1 mph - N/A   Clear
1:55 AM 66.7 °F 54.5 °F 65% 29.97 in 10.0 mi SSW 9.2 mph - N/A   Clear
2:15 AM 66.6 °F 54.5 °F 65% 29.97 in 10.0 mi SSW 8.1 mph 16.1 mph N/A   Clear
2:35 AM 66.0 °F 54.5 °F 66% 29.97 in 10.0 mi SSW 8.1 mph - N/A   Clear
2:55 AM 66.6 °F 54.7 °F 66% 29.97 in 10.0 mi SSW 10.4 mph 18.4 mph N/A   Clear
3:15 AM 66.2 °F 54.9 °F 67% 29.97 in 10.0 mi SSW 8.1 mph 18.4 mph N/A   Clear
3:35 AM 66.2 °F 54.9 °F 67% 29.97 in 10.0 mi SSW 8.1 mph - N/A   Clear
3:55 AM 66.4 °F 54.5 °F 66% 29.97 in 10.0 mi SSW 6.9 mph - N/A   Clear
4:15 AM 64.6 °F 54.5 °F 70% 29.97 in 10.0 mi South 5.8 mph - N/A   Clear
4:35 AM 65.7 °F 53.4 °F 65% 29.97 in 10.0 mi SSW 5.8 mph - N/A   Clear
4:55 AM 64.6 °F 52.9 °F 66% 29.97 in 10.0 mi SSW 6.9 mph - N/A   Clear
5:15 AM 64.8 °F 52.3 °F 64% 29.98 in 10.0 mi SSW 4.6 mph - N/A   Clear
5:35 AM 63.1 °F 52.0 °F 67% 29.98 in 10.0 mi SSW 5.8 mph - N/A   Clear
5:55 AM 63.7 °F 50.9 °F 63% 29.99 in 10.0 mi SSW 5.8 mph - N/A   Clear
6:15 AM 61.7 °F 51.3 °F 69% 30.00 in 10.0 mi South 4.6 mph - N/A   Clear
6:35 AM 61.3 °F 51.4 °F 70% 30.00 in 10.0 mi South 5.8 mph - N/A   Clear
6:55 AM 63.9 °F 50.9 °F 63% 30.00 in 10.0 mi South 8.1 mph - N/A   Clear
7:15 AM 64.4 °F 51.4 °F 63% 30.01 in 10.0 mi South 5.8 mph - N/A   Clear
7:35 AM 65.3 °F 52.3 °F 63% 30.01 in 10.0 mi South 6.9 mph - N/A   Clear
7:55 AM 65.8 °F 52.7 °F 62% 30.01 in 10.0 mi South 8.1 mph - N/A   Clear
8:15 AM 67.5 °F 52.0 °F 58% 30.02 in 10.0 mi SSW 8.1 mph - N/A   Clear
8:35 AM 69.6 °F 50.4 °F 50% 30.02 in 10.0 mi SW 11.5 mph - N/A   Clear
8:55 AM 71.6 °F 47.8 °F 43% 30.02 in 10.0 mi SW 12.7 mph 20.7 mph N/A   Clear
9:15 AM 72.7 °F 47.8 °F 41% 30.02 in 10.0 mi SW 13.8 mph - N/A   Clear
9:35 AM 73.4 °F 45.9 °F 37% 30.02 in 10.0 mi North - - N/A   Clear
9:55 AM 73.8 °F 46.9 °F 38% 30.02 in 10.0 mi WSW 16.1 mph 19.6 mph N/A   Clear
10:15 AM 74.5 °F 47.3 °F 38% 30.02 in 10.0 mi North - - N/A   Clear
10:35 AM 75.4 °F 47.7 °F 37% 30.01 in 10.0 mi WSW 15.0 mph - N/A   Clear
10:55 AM 76.5 °F 48.2 °F 37% 30.01 in 10.0 mi SW 13.8 mph 17.3 mph N/A   Clear
11:15 AM 77.5 °F 48.9 °F 36% 30.01 in 10.0 mi SW 11.5 mph - N/A   Clear
11:35 AM 78.8 °F 49.3 °F 35% 30.01 in 10.0 mi SSW 16.1 mph 19.6 mph N/A   Clear
11:55 AM 79.3 °F 47.5 °F 33% 30.00 in 10.0 mi SW 18.4 mph 23.0 mph N/A   Clear
12:15 PM 79.9 °F 49.3 °F 34% 30.00 in 10.0 mi SW 11.5 mph 17.3 mph N/A   Clear
12:35 PM 81.5 °F 50.0 °F 33% 29.99 in 10.0 mi WSW 11.5 mph 19.6 mph N/A   Clear
12:55 PM 82.2 °F 48.9 °F 31% 29.98 in 10.0 mi SSW 13.8 mph 20.7 mph N/A   Clear
1:15 PM 81.7 °F 49.1 °F 32% 29.97 in 10.0 mi SSW 15.0 mph 23.0 mph N/A   Clear
1:35 PM 82.9 °F 48.4 °F 30% 29.97 in 10.0 mi SW 13.8 mph 20.7 mph N/A   Clear
1:55 PM 83.7 °F 47.8 °F 29% 29.96 in 10.0 mi SSW 13.8 mph 20.7 mph N/A   Clear
2:15 PM 84.9 °F 48.9 °F 29% 29.94 in 10.0 mi South 13.8 mph 17.3 mph N/A   Clear
2:35 PM 85.6 °F 49.6 °F 29% 29.94 in 10.0 mi SW 16.1 mph 20.7 mph N/A   Clear
2:55 PM 86.0 °F 50.0 °F 29% 29.93 in 10.0 mi South 10.4 mph 18.4 mph N/A   Clear
3:15 PM 85.8 °F 49.6 °F 29% 29.92 in 10.0 mi SSW 16.1 mph 20.7 mph N/A   Clear
3:35 PM 85.8 °F 50.0 °F 29% 29.91 in 10.0 mi South 13.8 mph 20.7 mph N/A   Clear
3:55 PM 86.5 °F 50.2 °F 28% 29.90 in 10.0 mi SW 18.4 mph - N/A   Clear
4:15 PM 86.2 °F 50.7 °F 29% 29.90 in 10.0 mi South 10.4 mph 20.7 mph N/A   Clear
4:35 PM 86.0 °F 50.5 °F 29% 29.89 in 10.0 mi South 16.1 mph 21.9 mph N/A   Clear
4:55 PM 86.0 °F 50.9 °F 30% 29.89 in 10.0 mi SSW 13.8 mph 20.7 mph N/A   Clear
5:15 PM 85.8 °F 51.3 °F 30% 29.88 in 10.0 mi South 16.1 mph 25.3 mph N/A   Clear
5:35 PM 85.3 °F 50.0 °F 29% 29.88 in 10.0 mi South 16.1 mph 23.0 mph N/A   Clear
5:55 PM 84.9 °F 50.5 °F 30% 29.88 in 10.0 mi South 12.7 mph - N/A   Clear
6:15 PM 84.4 °F 49.6 °F 30% 29.87 in 10.0 mi SSW 17.3 mph 23.0 mph N/A   Clear
6:35 PM 83.8 °F 50.2 °F 31% 29.87 in 10.0 mi SSW 17.3 mph 23.0 mph N/A   Clear
6:55 PM 83.3 °F 50.9 °F 32% 29.87 in 10.0 mi SSW 16.1 mph 21.9 mph N/A   Clear
7:15 PM 82.4 °F 51.8 °F 35% 29.87 in 10.0 mi SSW 10.4 mph 16.1 mph N/A   Clear
7:35 PM 81.5 °F 51.8 °F 36% 29.87 in 10.0 mi SSW 11.5 mph - N/A   Clear
7:55 PM 79.5 °F 52.3 °F 39% 29.87 in 10.0 mi SSW 8.1 mph - N/A   Clear
8:15 PM 77.7 °F 53.4 °F 43% 29.87 in 10.0 mi SSW 9.2 mph - N/A   Clear
8:35 PM 76.3 °F 54.0 °F 46% 29.87 in 10.0 mi SSW 8.1 mph - N/A   Clear
8:55 PM 75.2 °F 54.7 °F 49% 29.87 in 10.0 mi South 8.1 mph - N/A   Clear
9:15 PM 75.4 °F 54.9 °F 49% 29.88 in 10.0 mi South 11.5 mph - N/A   Clear
9:35 PM 75.6 °F 55.6 °F 50% 29.88 in 10.0 mi South 9.2 mph - N/A   Clear
9:55 PM 74.3 °F 55.9 °F 53% 29.89 in 10.0 mi South 9.2 mph - N/A   Clear
10:15 PM 74.3 °F 55.6 °F 52% 29.89 in 10.0 mi South 11.5 mph - N/A   Clear
10:35 PM 73.6 °F 55.8 °F 54% 29.89 in 10.0 mi South 11.5 mph - N/A   Clear
10:55 PM 72.7 °F 56.3 °F 56% 29.89 in 10.0 mi South 10.4 mph - N/A   Clear
11:15 PM 72.1 °F 56.5 °F 58% 29.89 in 10.0 mi South 10.4 mph - N/A   Clear
11:35 PM 71.8 °F 56.8 °F 59% 29.90 in 10.0 mi South 11.5 mph - N/A   Clear
11:55 PM 71.1 °F 57.2 °F 61% 29.90 in 10.0 mi South 10.4 mph - N/A   Clear